Regional Weather Roundup
Issued by NWS

Home | Current Version | Previous Version | Graphics & Text | Print | Product List | Glossary On
Versions: 1 2 3 4 5 6 7 8 9 10 11 12 13 14 15 16 17 18 19 20 21 22 23 24 25 26 27 28 29 30 31 32 33 34 35 36 37 38 39 40 41 42 43 44 45 46 47 48 49 50
000
ASUS45 KBOU 191607
RWRCO

WEATHER ROUNDUP FOR COLORADO
NATIONAL WEATHER SERVICE DENVER/BOULDER CO
900 AM MST FRI DEC 19 2014

NOTE: "FAIR" INDICATES FEW OR NO CLOUDS BELOW 12000 FEET WITH NO
SIGNIFICANT WEATHER AND/OR OBSTRUCTIONS TO VISIBILITY.

COZ001>005-013-030-031-191700-
...NORTHWEST COLORADO...

CITY           SKY/WX    TMP DP  RH WIND       PRES   REMARKS
CRAIG          LGT SNOW  24  18  77 CALM      30.24R
HAYDEN         CLOUDY    18  12  79 CALM      30.22R
MEEKER         LGT SNOW  22  19  89 NE3       30.25R FOG
MOUNT WERNER   NOT AVBL
STEAMBOAT SPGS CLOUDY    19  17  91 CALM      30.20R
WALDEN         MOSUNNY   18  14  86 S9        30.11S WCI   6
$$

COZ006>008-011-191700-
...WEST CENTRAL VALLEYS...

CITY           SKY/WX    TMP DP  RH WIND       PRES   REMARKS
GRAND JUNCTION CLOUDY    30  29  96 E5        30.27R WCI  25
MONTROSE       CLOUDY    31  26  82 E3        30.27R
EAGLE          MOSUNNY   25  21  86 CALM      30.26R
RIFLE          LGT SNOW  28  25  88 CALM      30.26R FOG
DELTA          MOSUNNY   31  27  88 W5        30.28R WCI  26
NUCLA          CLOUDY    30  25  80 E7        30.31R WCI  23
$$

COZ017>023-064>068-191700-
...SOUTHWEST COLORADO...

CITY           SKY/WX    TMP DP  RH WIND       PRES   REMARKS
DURANGO        CLOUDY    22  18  85 N3        30.23R
CORTEZ         SUNNY     27  21  78 NE6       30.26R WCI  20
PAGOSA SPRINGS PTSUNNY   22  16  78 CALM      30.21R
TELLURIDE      NOT AVBL
WOLF CREEK PAS SUNNY     12  10  92 MISG      30.13R
$$

COZ009-010-012-014-032>034-037-058>063-191700-
...CENTRAL COLORADO...

CITY           SKY/WX    TMP DP  RH WIND       PRES   REMARKS
ASPEN          PTSUNNY   20  14  77 CALM      30.19R
BUENA VISTA    SUNNY     27  10  50 NW13      30.14S WCI  16
COPPER MTN     CLOUDY    12   5  73 W17       30.10R WCI  -5
BERTHOUD PASS  CLOUDY     3   0  85 MISG      30.05R
COTTONWOOD PAS SUNNY     23   7  50 NW7       30.10S WCI  15
GUNNISON       CLOUDY    16   7  67 N5        30.24R WCI   9
KREMMLING      CLOUDY   N/A N/A N/A CALM      30.22R FOG
LEADVILLE      PTSUNNY   13   2  61 N5        30.12R WCI   5
MONARCH PASS   CLOUDY     9   5  85 MISG      30.18S
SALIDA         SUNNY     25  12  58 CALM      30.23S
SUNLIGHT       LGT SNOW N/A N/A N/A CALM      30.17R
WILKERSON PASS MOSUNNY   12   1  62 NW9G21    30.08R WCI   0
$$

COZ069>075-191700-
...SAN LUIS VALLEY/SANGRE DE CRISTO MOUNTAINS...

CITY           SKY/WX    TMP DP  RH WIND       PRES   REMARKS
ALAMOSA        MOSUNNY   13  11  92 CALM      30.20R
LA VETA PASS   SUNNY     16  12  86 MISG      30.07R FOG
SAGUACHE       SUNNY     27  16  63 NW10      30.17S WCI  17
$$

COZ035-036-038>040-191700-
...NORTHERN COLORADO FRONT RANGE...

CITY           SKY/WX    TMP DP  RH WIND       PRES   REMARKS
DENVER INTL AP MOSUNNY   31  23  72 SW9       30.10R WCI  23
DMNS CITY PARK   N/A     30  18  61 S9        30.11S WCI  22
AURORA         MOSUNNY   28  23  81 S8        30.11R WCI  20
FRONT RANGE AP NOT AVBL
ERIE MUNI ARPT   N/A     28  26  92 CALM      30.10S FOG
BOULDER MUN AP SUNNY     32  21  64 S5        30.09S WCI  27
CENTENNIAL     MOSUNNY   28  24  85 E3        30.10R
BROOMFIELD     SUNNY     30  25  80 CALM      30.10S
FORT COLLINS   SUNNY     27  25  93 CALM      30.11R
LONGMONT       SUNNY     30  26  84 CALM      30.11F FOG
$$

COZ041-046-047-076>085-087-088-191700-
...PIKES PEAK/PALMER DIVIDE AND SOUTHERN FOOTHILLS...

CITY           SKY/WX    TMP DP  RH WIND       PRES   REMARKS
COLO. SPRINGS  MOSUNNY   35  17  47 N9        30.10R WCI  28
A. F. ACADEMY  SUNNY     28  17  65 N6        30.10R WCI  21
ELLICOTT       NOT AVBL
FALCON         SUNNY     33  19  56 N5        30.10R WCI  28
FORT CARSON    SUNNY     30  23  77 W5        30.10R WCI  25
LIMON          SUNNY     27  23  85 NW6       30.11S WCI  20
MONUMENT HILL  SUNNY     28  19  69 W5        30.08S WCI  23
TRINIDAD       SUNNY     31  22  69 W9        30.11S WCI  23
$$

COZ042>045-048>051-090-091-191700-
...NORTHEAST COLORADO...

CITY           SKY/WX    TMP DP  RH WIND       PRES   REMARKS
GREELEY ARPT   SUNNY     21  14  73 CALM      30.10R
AKRON          MOSUNNY   23  20  88 SW15      30.10R WCI  10
BURLINGTON     CLOUDY    30  24  78 W8        30.13R WCI  22
WRAY           PTSUNNY   23  20  89 SW7       30.12S WCI  14
STERLING       MOSUNNY   18  14  86 S10       30.11S WCI   6
HOLYOKE        NOT AVBL
FORT MORGAN    MOSUNNY   17  15  90 W13       30.11S FOG     WCI   4
$$

COZ086-089-092>099-191700-
...SOUTHEAST COLORADO...

CITY           SKY/WX    TMP DP  RH WIND       PRES   REMARKS
PUEBLO         NOT AVBL
LA JUNTA       SUNNY     30  26  85 W7        30.13R WCI  23
LAMAR          SUNNY     29  27  92 NW3       30.13R FOG
SPRINGFIELD      N/A     36  32  85 NW10      30.12R
$$


USA.gov is the U.S. government's official web portal to all federal, state and local government web resources and services.